Regional Weather Roundup
Issued by NWS Charleston, SC

Current Version | Previous Version | Text Only | Print | Product List | Glossary Off
Versions: 1 2 3 4 5 6 7 8 9 10 11 12 13 14 15 16 17 18 19 20 21 22 23 24 25 26 27 28 29 30 31 32 33 34 35 36 37 38 39 40 41 42 43 44 45 46 47 48 49 50
000 ASUS42 KCHS 251229 RWRCHS REGIONAL WEATHER ROUNDUP NATIONAL WEATHER SERVICE CHARLESTON SC 800 AM EDT MON SEP 25 2017 NOTE: "FAIR" INDICATES FEW OR NO CLOUDS BELOW 12,000 FEET WITH NO SIGNIFICANT WEATHER AND/OR OBSTRUCTIONS TO VISIBILITY. NOT ALL STATIONS ARE QUALITY CONTROLLED. USE DATA WITH CAUTION... ESPECIALLY DEWPOINT OBSERVATIONS. SCZ027-030-031-034>040-042>050-251300- ...SOUTHEAST SOUTH CAROLINA... CITY SKY/WX TMP DP RH WIND PRES REMARKS N CHARLESTON CLOUDY 70 65 84 N8 29.94R 6HR MIN TEMP: 69; 6HR MAX TEMP: 72; WATERFRONT PRK N/A 72 67 84 N9 29.78R JOHNS ISLAND PTSUNNY 72 66 83 N10 29.93R PINOPOLIS N/A 72 66 83 NE10 29.86R MONCKS CORNER FAIR 70 63 78 N6 29.95R SUMMERVILLE FAIR 68 64 88 N3 29.97R BEAUFORT MCAS CLOUDY 71 69 93 N8 29.94R 6HR MIN TEMP: 71; 6HR MAX TEMP: 75; BEAUFORT ARPT FAIR 70 66 88 N7 29.93S HILTON HEAD IS NOT AVBL WALTERBORO CLOUDY 68 64 88 CALM 29.96S ALLENDALE NOT AVBL ...SOUTHERN MIDLANDS AND PEE DEE... CITY SKY/WX TMP DP RH WIND PRES REMARKS GEORGETOWN CLOUDY 68 68 100 N8 29.94S KINGSTREE FAIR 66 61 82 CALM 29.97R ORANGEBURG CLOUDY 69 61 75 N7 29.98R 6HR MIN TEMP: 69; 6HR MAX TEMP: 72; BARNWELL FAIR 68 66 94 CALM 29.98R AIKEN FAIR 64 63 94 N3 30.03S MANNING FAIR 68 63 83 MISG 29.97R COLUMBIA MOCLDY 71 61 70 N3 29.99R 6HR MIN TEMP: 71; 6HR MAX TEMP: 75; SUMTER MOCLDY 70 59 67 N9 29.96R 6HR MIN TEMP: 68; 6HR MAX TEMP: 71; FLORENCE MOCLDY 67 60 78 N9 29.98R 6HR MIN TEMP: 67; 6HR MAX TEMP: 72; MYRTLE BEACH CLOUDY 69 66 90 N8 29.94S N MYRTLE BEACH CLOUDY 70 67 90 N6 29.92S 6HR MIN TEMP: 69; 6HR MAX TEMP: 73; $$ GAZ063-065-086>088-099>101-113>116-118-119-134>141-150-251300- ...SOUTHEAST GEORGIA... CITY SKY/WX TMP DP RH WIND PRES REMARKS SAVANNAH ARPT CLOUDY 70 68 93 N6 29.95R 6HR MIN TEMP: 69; 6HR MAX TEMP: 73; HUNTER AAF NOT AVBL FORT STEWART CLEAR 69 66 90 N5 29.92R 6HR MIN TEMP: 69; 6HR MAX TEMP: 72; STATESBORO CLOUDY 69 68 96 CALM 29.96R SYLVANIA CLOUDY 70 68 95 NE8 29.97R CLAXTON FAIR 68 67 98 CALM 29.96R FOG ...CSRA...CENTRAL AND FAR SOUTHEAST GEORGIA... CITY SKY/WX TMP DP RH WIND PRES REMARKS THOMSON PTCLDY 65 64 95 CALM 30.06R AUGUSTA-BUSH PTCLDY 69 66 90 N5 29.98S 6HR MIN TEMP: 67; 6HR MAX TEMP: 72; AUGUSTA-DANIEL CLOUDY 70 65 84 MISG 30.00S SWAINSBORO FAIR 70 68 94 NE7 29.98S VIDALIA CLEAR 70 68 94 N3 29.97R EASTMAN FAIR 65 65 100 CALM 29.99S FOG HAZLEHURST FAIR 69 67 93 NE3 29.95S ALMA CLEAR 70 66 87 N5 29.95R 6HR MIN TEMP: 67; 6HR MAX TEMP: 70; WAYCROSS CLEAR 68 65 90 CALM 29.95R JESUP NOT AVBL BAXLEY FAIR 66 66 100 NE3 29.95S BRUNSWICK CLEAR 70 66 88 N3 29.94R SAINT SIMONS CLEAR 73 70 90 N8 29.92R 6HR MIN TEMP: 72; 6HR MAX TEMP: 76; $$ SCZ027-028-034-036>038-045-046-048>050-GAZ119-141-251300- ...LAKE AND SUPPLEMENTAL COASTAL OBSERVATIONS... STATION/POSITION TIME TEMP WIND PRES WAVE SWELL AIR SEA DIR/SP/G HT/PER HT/PER/DIR (UTC) (F) (DEG/KT/KT) (MB) (FT/S) (FT/S/D) WINYAH BAY NOT AVBL LAKE MURRAY 1120 69 350/ 3/ 6 1014.9S ACE BASIN NERRS 1045 70 330/ 2 1013.0 FORT PULASKI 1136 72 80 350/ 7/ 8 1013.8R SAPELO ISLAND 1100 72 CALM 1013.0 $$ ANZ835-935-AMZ111-154-330-350-352-354-370-450-454-472-251300- ...C-MAN AND BUOY OBSERVATIONS... STATION/POSITION TIME TEMP WIND PRES WAVE SWELL AIR SEA DIR/SP/G HT/PER HT/PER/DIR (UTC) (F) (DEG/KT/KT) (MB) (FT/S) (FT/S/D) BUOY 41004 1150 77 80 10/ 16/ 19 1011.4R 10/12 8/120/12 BUOY 41008 1150 78 80 10/ 14/ 17 1012.4R 5/12 3/110/12 FOLLY BEACH CMAN 1200 72 350/ 9/ 11 1014.0R CAPERS NEARSHORE 1108 71 80 20/ 14/ 19 1012.4R FRIPP NEARSHORE 1108 76 360/ 12/ 16 1018.3R STATION/POSITION TIME TEMP WIND PRES WAVE SWELL AIR SEA DIR/SP/G HT/PER HT/PER/DIR (UTC) (F) (DEG/KT/KT) (MB) (FT/S) (FT/S/D) 5E ST. MARYS GA 1130 81 N/A 6/13 3/100/13 FRYING PAN BUOY 1200 78 82 20/ 21/ 25 1010.7 BUOY 41025 1150 75 76 30/ 21/ 27 1011.2R 11/15 10/150/15 CAPE LOOKOUT NC 1200 75 30/ 23/ 26 1011.8R BUOY 41002 1150 80 81 10/ 35/ 47 996.4F 24/12 16/130/12 BUOY 41010 1150 10/ 12/ 17 1010.4R 10/11 10/11 ST AUGUSTINE FL 1200 80 81 360/ 13/ 14 1012.7R $$

USA.gov is the U.S. government's official web portal to all federal, state and local government web resources and services.